Custer, SD

4:37 PM MST on February 09, 2016 (GMT -0700)
Custer County

Weather History for KCUT - August, 2012

Change the Weather History Date:

Friday, August 3, 2012

  Actual Average Record
Temperature  
Mean Temperature 67 °F 66 °F  
Max Temperature 83 °F 79 °F 92 °F (1947)
Min Temperature 51 °F 52 °F 32 °F (1978)
Degree Days  
Heating Degree Days 0 2  
Month to date heating degree days 0 6  
Since 1 June heating degree days 110 287  
Since 1 July heating degree days 6 67  
Cooling Degree Days 2 2  
Month to date cooling degree days 12 6  
Year to date cooling degree days 279 113  
Since 1 June cooling degree days 279 112  
Growing Degree Days 17 (Base 50)    
Moisture  
Dew Point 46 °F    
Average Humidity 55    
Maximum Humidity 89    
Minimum Humidity 20    
Precipitation  
Precipitation 0.03 in 0.07 in 1.86 in (2011)
Month to date precipitation 0.03 0.19  
Year to date precipitation 9.98 12.96  
Sea Level Pressure  
Sea Level Pressure 29.80 in    
Wind  
Wind Speed 7 mph (NW)    
Max Wind Speed 21 mph    
Max Gust Speed 31 mph    
Visibility 10 miles    
Events Rain    
T = Trace of Precipitation, MM = Missing Value Source: NWS Daily Summary

Daily Weather History Graph

Daily Weather History Graph

Search for Another Location

Airport or City:

Trip Planner

Search our weather history database for the weather conditions in past years. The results will help you decide how hot, cold, wet, or windy it might be!

Date:

Astronomy

Aug. 03, 2012 Rise Set
Actual Time 5:46 AM MDT 8:14 PM MDT
Civil Twilight 5:13 AM MDT 8:46 PM MDT
Nautical Twilight 4:33 AM MDT 9:26 PM MDT
Astronomical Twilight 3:47 AM MDT 10:12 PM MDT
Moon 8:47 PM MDT (8/3) 7:37 AM MDT (8/3)
Length of Visible Light 15h 33m
Length of Day
14h 28m
Full, 97% of the Moon is Illuminated
Aug 3
Full
Aug 9
Last Quarter
Aug 17
New
Aug 24
First Quarter
Aug 31
Full

Hourly Weather History & Observations

Time (MDT) Temp. Dew Point Humidity Pressure Visibility Wind Dir Wind Speed Gust Speed Precip Events Conditions
12:53 AM 57.9 °F 48.9 °F 72% 29.79 in 10.0 mi NNE 6.9 mph - N/A   Clear
1:53 AM 55.9 °F 50.0 °F 80% 29.76 in 10.0 mi NE 4.6 mph - N/A   Clear
2:53 AM 55.9 °F 50.0 °F 80% 29.75 in 10.0 mi Calm Calm - N/A   Clear
3:53 AM 54.0 °F 48.9 °F 83% 29.74 in 10.0 mi WNW 4.6 mph - N/A   Clear
4:53 AM 54.0 °F 50.0 °F 86% 29.71 in 10.0 mi WNW 4.6 mph - N/A   Clear
5:53 AM 52.0 °F 48.9 °F 89% 29.72 in 10.0 mi Calm Calm - N/A   Clear
6:53 AM 60.1 °F 53.1 °F 78% 29.71 in 10.0 mi WSW 6.9 mph - N/A   Clear
7:53 AM 69.1 °F 52.0 °F 54% 29.69 in 10.0 mi Calm Calm - N/A   Clear
8:53 AM 75.0 °F 51.1 °F 43% 29.69 in 10.0 mi Calm Calm - N/A   Clear
9:53 AM 77.0 °F 48.9 °F 37% 29.71 in 10.0 mi West 10.4 mph - N/A   Clear
10:53 AM 78.1 °F 48.9 °F 36% 29.73 in 10.0 mi West 11.5 mph - N/A   Clear
11:53 AM 79.0 °F 42.1 °F 27% 29.74 in 10.0 mi West 10.4 mph 21.9 mph N/A   Clear
12:53 PM 82.0 °F 37.0 °F 20% 29.74 in 10.0 mi West 11.5 mph 20.7 mph N/A   Clear
1:53 PM 81.0 °F 35.1 °F 19% 29.75 in 10.0 mi WSW 13.8 mph 23.0 mph N/A   Clear
2:53 PM 75.9 °F 45.0 °F 33% 29.78 in 10.0 mi Variable 6.9 mph - N/A   Clear
3:53 PM 64.9 °F 48.0 °F 54% 29.85 in 10.0 mi NNE 8.1 mph - N/A   Clear
4:53 PM 64.0 °F 46.9 °F 54% 29.86 in 10.0 mi North 9.2 mph 20.7 mph N/A   Clear
5:53 PM 62.1 °F 46.9 °F 58% 29.88 in 10.0 mi North 8.1 mph - N/A   Clear
6:53 PM 59.0 °F 46.0 °F 62% 29.87 in 10.0 mi NNW 10.4 mph - N/A   Partly Cloudy
7:53 PM 55.9 °F 45.0 °F 67% 29.88 in 10.0 mi North 11.5 mph - N/A   Clear
8:53 PM 55.0 °F 43.0 °F 64% 29.93 in 10.0 mi Variable 3.5 mph - N/A   Clear
9:53 PM 55.0 °F 34.0 °F 45% 29.96 in 10.0 mi NW 6.9 mph 17.3 mph N/A   Clear
10:53 PM 55.0 °F 36.0 °F 49% 29.95 in 9.0 mi NW 13.8 mph 23.0 mph 0.00 in Rain Light Rain
11:53 PM 53.1 °F 37.9 °F 57% 29.95 in 10.0 mi North 8.1 mph - 0.03 in   Overcast